Lapse_Rate
2.6 2.4 2.4 2.5 2.4 2.1 2.2 2.1 2.1 2.2 2.5 2.3 1.7 2.4 3.1 2.6 1.7 1.5 0.6 0.9 3.0 2.4 3.1 1.4 2.2 1.1 1.0 2.0 6.5 3.0 4.9 4.7 5.2 6.5 6.5 6.5 6.5 6.5 6.5 6.5 6.5 6.5 6.5 6.5 6.5 6.5 6.5 5.6 6.1 6.5 5.4 1.4 2.2 0.1
3.0 2.8 2.8 2.6 2.6 2.6 2.5 2.3 2.0 1.9 2.0 2.2 2.2 2.2 2.5 3.0 2.3 1.7 1.5 -0.2 1.9 3.7 3.4 0.6 0.9 1.1 3.0 2.7 1.7 -0.3 3.4 2.1 3.5 6.5 6.5 6.5 6.5 6.5 6.5 6.5 6.5 6.5 6.5 6.5 6.5 6.5 5.8 4.1 5.1 3.2 0.6 2.3 1.2 0.6
4.1 3.8 3.6 3.4 3.3 3.2 3.2 3.1 3.0 2.7 2.6 2.5 2.9 3.0 2.8 3.1 3.0 1.9 0.2 -0.1 0.6 2.8 3.5 2.7 2.3 -2.3 -2.1 -0.6 0.3 2.8 0.6 0.2 -0.3 0.4 2.4 6.1 6.5 6.5 6.5 6.5 6.5 6.5 2.8 6.5 6.5 6.5 6.3 5.7 4.5 3.8 4.2 1.4 0.6 0.9
4.5 4.5 4.3 4.2 4.1 4.0 3.9 3.6 3.5 3.7 3.8 3.4 3.6 4.6 4.7 4.3 4.3 1.7 0.6 0.0 1.0 1.7 5.3 4.4 -0.2 -1.0 -1.8 -0.8 0.5 0.9 0.4 -0.9 0.2 1.5 3.2 6.6 6.5 3.2 6.5 6.3 6.5 5.0 5.9 6.5 6.5 6.4 6.1 5.3 3.9 1.9 0.6 -1.0 -1.0 0.3
5.0 5.0 4.9 4.9 4.9 4.9 4.7 4.6 4.3 4.1 4.0 4.2 3.8 4.4 5.0 4.9 4.4 2.4 0.4 0.7 0.9 3.6 5.6 4.4 1.0 -1.6 -1.6 -1.1 -0.9 -0.1 2.0 2.4 2.1 3.7 5.7 6.5 4.8 5.3 3.4 5.9 6.5 2.6 6.5 6.5 6.5 6.1 5.2 5.3 2.2 1.6 -0.5 -1.3 -1.6 -0.7
5.7 6.4 6.0 5.7 5.9 6.0 5.7 5.4 5.1 4.7 4.5 4.8 4.9 4.4 4.2 4.7 2.7 3.0 3.7 0.8 1.2 0.9 3.9 6.5 2.8 1.5 0.6 0.8 1.5 3.0 3.6 3.8 3.5 3.3 4.3 2.6 1.5 4.0 6.5 6.5 3.3 1.0 2.5 5.7 6.3 5.7 5.3 1.0 -0.8 -0.3 -1.5 -1.5 -0.9 -1.0
5.6 6.3 7.0 7.0 6.7 6.6 6.6 6.3 6.0 5.7 5.3 4.9 4.8 4.8 4.6 3.9 3.8 3.8 3.2 1.2 1.1 3.7 4.2 6.2 6.2 3.7 3.6 3.6 3.8 3.8 3.9 4.5 4.3 4.1 5.2 4.6 4.1 4.4 6.5 6.5 5.4 4.0 4.8 5.4 4.4 4.9 5.6 1.4 3.8 -1.4 -2.3 -1.7 1.4 -0.4
6.3 6.5 6.5 7.2 7.6 7.3 7.0 6.8 6.5 6.3 6.3 6.7 5.9 4.2 5.3 3.9 3.3 3.4 1.4 2.5 2.5 2.2 3.2 6.5 6.5 5.4 3.3 2.7 3.3 3.2 5.3 5.6 5.5 5.6 4.9 4.1 4.0 5.5 6.5 4.3 1.2 2.1 3.0 1.9 2.7 3.9 4.7 3.2 -3.5 -3.2 -3.1 -2.3 -0.6 0.3
7.2 6.8 6.8 7.1 7.3 7.4 7.4 7.4 7.1 6.8 6.7 6.4 6.4 5.6 4.3 2.8 3.5 2.6 3.5 2.8 2.5 2.6 5.6 6.2 6.5 6.5 3.3 4.0 3.7 4.0 4.3 6.2 4.5 5.7 5.7 5.0 6.5 6.5 6.1 4.3 3.4 -0.1 2.1 4.0 2.0 -1.9 -0.9 0.3 2.0 -3.1 -1.7 -1.5 1.6 1.0
7.2 7.0 7.1 7.2 7.2 7.4 7.5 7.5 7.5 7.2 7.1 6.6 5.3 3.7 2.9 3.1 4.3 4.1 4.1 4.5 4.8 4.5 4.0 6.5 2.2 6.5 2.4 4.1 5.4 5.4 4.4 6.4 6.5 6.0 3.4 6.5 6.5 0.3 -1.6 -0.3 -0.2 0.4 2.7 3.5 2.7 5.4 -0.6 -0.8 -0.3 -1.8 -0.9 1.2 0.7 1.0
7.6 7.5 7.4 7.4 7.4 7.4 7.6 7.6 7.8 7.8 7.6 4.7 2.0 2.7 2.4 3.2 3.5 4.0 5.4 6.1 4.7 5.5 4.6 3.8 3.5 5.7 2.8 5.8 6.4 5.7 6.5 6.3 6.5 6.3 6.5 6.5 6.5 4.6 -4.8 -1.9 -0.6 0.5 0.9 0.7 1.0 0.9 2.2 4.0 0.5 0.9 -0.1 0.9 1.2 0.1
7.5 7.5 7.6 7.6 7.6 7.6 7.7 7.6 7.5 6.9 4.0 4.6 3.2 3.0 3.8 4.2 4.3 6.3 6.5 4.6 6.5 6.5 3.1 6.1 4.4 4.1 3.8 4.8 6.1 6.5 6.5 6.3 6.5 4.6 6.5 6.5 6.5 -3.8 -5.4 -1.8 -2.2 -3.3 -5.2 -5.2 -5.3 -3.6 -3.1 -0.8 2.0 1.8 -0.0 1.0 0.2 -0.4
7.4 7.5 7.5 7.5 7.5 7.5 7.4 7.3 7.8 6.2 5.6 4.1 2.3 2.4 3.8 4.2 6.5 6.5 6.5 6.5 6.5 3.6 4.0 5.7 5.8 3.0 4.8 5.0 6.0 6.6 6.5 6.5 5.2 6.5 6.5 6.5 0.7 -3.5 -2.5 -4.7 -3.4 -5.8 -7.3 -6.9 -5.7 -6.5 -2.9 -0.2 0.8 0.6 -0.3 -0.4 -0.8 -0.5
7.1 7.2 7.3 7.3 7.3 7.4 7.3 7.2 7.9 5.5 5.5 6.3 5.6 6.5 6.3 6.5 6.5 6.5 6.5 6.0 1.3 -0.5 1.9 2.3 3.9 3.2 5.4 5.9 5.5 6.5 6.5 6.4 6.5 6.5 6.5 6.5 -2.8 -2.5 -3.3 -5.1 -8.1 -3.9 -5.3 -5.6 -5.3 -4.9 -3.5 -0.1 -0.3 -0.5 -0.6 -1.6 -0.4 -0.3
7.2 7.4 7.4 7.4 7.8 7.5 7.3 7.2 7.6 5.2 5.2 6.7 4.4 6.5 6.5 3.2 -1.9 -1.8 -2.7 -1.1 -0.8 0.7 2.9 3.3 4.1 3.7 6.2 6.5 6.5 6.5 6.5 6.5 6.5 6.5 6.5 -0.8 -2.3 -3.7 -1.5 -2.5 -3.7 -3.4 -4.0 -4.5 -4.4 -2.7 -1.2 -0.0 -0.4 -0.5 -1.5 -0.4 0.3 0.5
8.0 8.0 7.5 7.7 7.8 7.8 7.6 7.4 6.3 3.6 4.8 6.3 6.3 4.5 2.1 2.8 2.7 2.2 1.7 -0.5 -0.3 1.4 1.1 3.2 6.2 6.5 6.5 6.5 6.5 6.5 6.5 6.5 6.5 6.4 -0.9 -2.6 -2.1 -1.8 -1.1 -1.4 -1.6 -2.1 -2.5 -2.2 -1.3 -0.3 0.3 0.4 0.7 -0.2 -0.7 0.3 0.8 1.0
7.4 7.0 7.1 7.4 7.6 7.6 7.7 5.1 5.6 5.5 5.5 6.3 6.4 -0.8 1.5 -1.5 0.8 -0.6 -0.6 -0.8 1.2 4.9 6.3 5.7 6.5 6.5 6.3 6.5 6.5 6.5 6.5 6.5 1.4 -1.3 -2.6 -0.6 0.6 0.5 -0.8 -1.2 -0.8 -0.7 -1.4 -1.5 -1.2 0.1 1.7 1.3 1.0 0.3 0.3 0.5 0.5 1.3
7.1 6.4 7.1 7.3 7.6 7.2 4.5 5.5 6.0 6.3 6.3 5.4 5.4 1.8 0.4 1.8 0.8 -1.9 -3.2 -2.0 2.0 2.7 3.3 6.0 5.5 6.5 6.5 6.5 6.5 6.4 3.5 -0.6 2.1 3.4 3.1 2.6 0.7 0.3 0.1 -0.3 -0.2 -0.7 -1.0 -0.9 0.0 0.8 1.9 1.4 2.1 1.8 1.5 0.9 0.9 1.0
7.3 7.5 7.4 8.0 8.0 5.1 5.4 5.5 5.7 6.4 4.9 -0.4 -2.2 -2.8 -0.5 0.7 1.4 0.6 1.3 0.1 -0.0 0.4 1.0 5.2 6.5 6.5 6.5 5.1 5.5 5.6 4.1 4.7 5.7 6.2 2.6 0.5 -0.3 -0.0 0.2 -0.5 -0.8 -1.1 -0.7 0.3 1.0 2.2 2.4 2.6 3.3 2.7 1.5 1.0 1.4 1.6
7.7 7.8 7.9 7.8 7.6 4.9 5.5 6.0 4.1 6.0 3.9 2.2 -1.0 -1.2 -1.0 -0.6 -3.3 -4.2 -4.2 0.4 2.2 5.2 6.1 6.5 6.5 6.3 6.1 6.3 5.2 6.1 6.6 6.3 1.0 3.8 5.6 5.4 1.2 -1.5 -0.7 -0.2 -0.1 -0.1 0.2 0.8 2.4 4.5 3.6 3.3 3.1 2.5 1.3 1.4 1.5 1.6
7.8 6.6 7.8 7.6 5.6 5.0 5.2 4.9 4.1 2.6 -1.3 1.7 -5.8 0.3 -0.1 -2.5 -0.2 -0.6 1.7 2.8 6.6 6.2 6.4 4.2 6.1 6.5 6.2 6.1 6.1 1.5 1.7 0.7 3.5 5.4 6.3 5.9 4.2 -0.3 -0.2 -0.3 -0.1 0.5 1.2 1.9 2.5 3.6 6.6 3.9 2.9 2.0 2.3 2.3 2.2 2.5
5.0 7.1 4.5 6.1 3.3 3.8 3.0 2.1 4.2 -0.3 0.8 -1.9 0.2 -0.7 -2.4 0.5 0.4 -0.8 0.7 6.3 4.9 6.1 5.1 6.2 6.4 6.4 5.7 5.0 1.6 1.2 2.0 2.0 3.0 2.8 5.5 5.2 4.9 3.2 1.9 1.8 1.7 1.9 1.8 1.5 2.8 4.0 4.7 3.2 1.8 1.9 2.3 1.5 3.0 2.2
4.0 3.5 2.8 3.6 5.5 5.5 5.3 2.3 4.6 1.8 6.5 5.2 2.4 3.9 3.9 0.2 -1.1 0.5 4.4 2.2 1.3 -3.9 -3.4 -1.7 -1.9 -1.9 -0.3 0.8 1.5 2.8 3.0 3.7 3.3 3.0 3.9 4.3 4.5 4.6 4.7 4.0 3.1 3.3 2.5 1.9 3.1 3.4 3.5 2.7 3.6 2.1 1.7 2.6 1.6 1.9
3.6 3.8 5.2 5.9 5.4 6.6 4.8 4.9 4.5 3.7 2.7 5.7 6.5 6.5 5.8 1.6 2.0 4.8 6.5 2.1 -1.8 -1.6 -1.7 -0.9 0.1 -0.2 -0.5 0.6 2.6 2.1 2.8 3.6 2.9 2.9 2.7 3.6 4.5 5.2 5.2 5.4 4.6 3.6 4.2 3.3 3.6 3.4 2.5 2.8 3.8 2.6 2.1 1.4 1.4 1.9
5.8 5.9 5.4 6.5 4.6 6.1 6.5 6.5 6.5 6.5 6.5 6.5 6.5 6.5 6.3 4.8 6.5 6.5 6.5 3.1 -1.2 1.2 2.2 1.2 1.2 1.1 1.3 1.3 1.5 1.9 2.7 3.4 3.9 3.8 2.6 3.7 4.4 4.9 5.2 5.1 5.1 4.6 4.7 4.7 4.2 3.9 2.8 2.4 3.4 2.3 2.0 1.5 1.7 1.5
6.5 5.6 6.3 6.4 5.4 6.5 6.5 6.5 6.5 6.5 6.5 6.5 6.5 4.1 3.4 6.5 6.5 6.5 6.4 3.0 2.5 1.8 1.2 0.8 1.4 1.4 1.2 3.3 2.6 1.9 2.6 3.3 3.8 3.5 2.9 4.6 5.5 6.1 6.1 6.6 6.0 4.7 4.3 4.9 4.7 4.3 3.3 3.0 2.3 1.8 1.5 2.6 3.3 1.6
6.5 6.5 4.5 4.2 3.6 4.1 6.0 5.6 5.4 6.3 6.5 6.5 6.5 6.5 6.5 6.5 6.5 6.4 5.9 3.9 2.9 2.5 1.9 2.4 2.7 2.6 2.4 1.7 1.6 1.0 0.8 1.4 2.7 3.6 3.6 2.8 2.8 3.6 4.6 5.6 6.5 5.8 4.7 5.1 5.2 4.9 4.2 3.1 2.4 1.3 3.0 2.3 2.9 1.7
5.2 4.0 6.5 4.0 3.8 2.6 6.5 6.5 6.5 6.5 6.5 4.3 6.2 6.5 6.5 6.5 6.5 5.2 5.1 4.1 3.0 2.2 1.8 2.1 2.6 2.4 1.4 0.7 0.6 -0.2 -1.1 0.7 2.5 3.0 2.9 2.5 2.9 2.9 3.5 4.6 5.3 6.7 5.6 5.2 5.5 5.4 5.2 3.9 1.9 1.1 1.0 1.7 2.4 1.0
4.9 5.0 4.2 6.4 3.3 3.5 4.9 6.2 6.3 3.5 3.9 4.8 6.4 6.5 6.3 5.5 4.4 4.0 4.2 3.3 2.8 2.0 1.6 1.4 1.6 1.8 0.9 0.5 0.4 0.1 0.5 1.4 3.9 2.6 2.0 2.8 3.1 3.8 4.6 4.5 4.6 5.6 6.3 5.5 7.0 6.1 5.3 3.6 2.2 2.0 1.7 1.8 0.6 0.4
4.6 4.4 4.8 5.1 6.5 6.5 4.6 3.4 3.3 3.2 3.9 3.4 3.3 4.6 5.4 5.8 5.3 4.7 4.2 3.1 2.3 2.2 2.5 2.7 2.8 1.5 1.1 0.2 -0.7 -0.6 0.4 0.5 2.4 3.9 4.0 2.7 2.3 2.3 2.2 3.7 4.5 5.1 5.1 5.4 6.1 6.9 7.6 5.8 5.5 3.2 0.9 0.5 0.3 0.3
4.9 4.4 4.5 4.8 6.1 4.4 4.4 3.9 4.2 4.8 4.6 4.4 5.0 5.1 6.1 5.7 5.8 5.5 4.5 3.6 3.3 3.3 3.0 3.5 2.5 2.4 2.3 1.9 1.4 -0.2 -0.8 -0.1 1.5 1.8 2.5 5.4 3.6 3.0 3.9 4.0 4.7 5.3 5.5 5.5 5.7 6.1 6.4 4.1 2.9 1.4 0.5 0.5 0.7 0.8
5.6 5.1 5.8 6.5 6.2 4.4 4.2 5.4 6.0 5.7 5.4 5.4 6.3 6.0 6.1 6.7 6.8 6.0 5.3 4.1 3.4 2.7 3.8 3.0 2.3 2.7 3.4 3.3 3.0 3.1 5.2 3.3 2.3 3.7 6.1 4.0 3.0 3.2 3.7 4.3 5.0 5.2 5.1 5.3 5.9 5.5 3.0 1.4 1.2 0.9 0.8 0.7 0.8 -0.1
5.4 5.9 6.2 6.3 5.9 5.9 5.2 6.2 6.5 6.4 5.6 5.7 6.1 6.2 5.8 6.5 6.6 6.3 5.6 5.1 4.2 3.6 3.1 2.5 2.9 3.8 4.6 4.0 3.0 1.9 2.4 1.8 2.8 4.0 6.4 7.8 8.2 6.1 4.1 4.0 4.2 4.4 4.9 4.7 3.8 3.1 2.6 2.3 2.1 1.5 1.2 1.0 1.0 1.0
Wind_Speed
5 6 7 8 9 12 12 12 12 12 13 13 19 8 22 27 31 14 1 15 4 3 4 9 8 6 3 1 3 4 2 1 2 1 3 4 3 4 1 6 7 8 8 6 4 5 11 9 8 9 6 2 3 5
5 5 5 6 8 9 10 12 12 12 15 13 15 18 11 24 30 20 2 4 4 2 3 2 5 2 5 8 5 4 1 4 6 2 2 1 4 1 4 10 0 3 8 5 14 10 6 13 16 7 1 4 4 4
5 5 6 7 7 8 8 9 11 13 13 15 13 15 13 11 26 23 3 5 3 1 4 1 8 1 3 2 0 4 2 4 4 2 3 3 7 4 4 7 3 5 4 5 3 18 27 22 20 18 14 13 5 4
8 8 6 7 7 8 9 10 10 12 13 13 13 15 16 13 6 21 3 7 2 3 2 3 2 4 2 1 2 2 4 4 4 1 2 3 2 3 4 3 6 4 5 6 14 23 28 19 17 8 5 5 5 5
12 11 9 8 8 8 8 9 11 11 13 13 14 14 14 15 13 13 6 7 3 3 3 2 5 4 3 1 5 4 5 3 2 2 3 3 2 2 1 2 5 6 12 8 13 23 13 21 2 1 6 6 9 8
14 14 12 11 10 10 9 9 9 11 13 15 15 14 13 11 19 4 2 5 16 2 2 3 2 3 4 4 5 3 2 1 2 3 3 3 1 2 4 5 3 14 17 20 27 28 20 11 5 3 5 6 6 8
16 16 15 13 12 12 12 10 9 10 13 14 18 19 12 7 1 2 2 1 14 4 1 4 2 1 1 1 1 1 1 0 1 2 3 2 0 3 3 13 16 14 20 21 17 18 25 10 14 7 6 6 7 4
19 19 17 16 15 14 13 11 10 10 12 12 10 13 2 10 7 1 5 12 11 3 1 3 0 2 2 1 1 2 2 0 2 2 1 2 1 1 6 12 18 17 13 13 17 13 23 18 0 3 4 5 5 6
21 20 19 18 17 15 14 13 10 9 8 5 3 5 4 4 2 2 3 8 5 2 2 3 4 3 2 1 2 1 2 1 1 2 3 3 3 7 11 17 17 20 6 16 21 8 7 9 13 5 6 5 5 7
22 21 21 21 19 17 16 13 10 7 9 5 4 3 2 2 2 3 3 0 1 2 2 3 1 2 4 1 1 2 0 2 2 4 2 3 5 5 13 20 20 16 19 19 13 19 6 7 7 6 10 8 8 5
22 23 22 21 20 20 18 16 12 6 2 2 2 0 1 7 2 1 2 3 1 3 3 2 4 5 3 3 3 3 3 2 2 4 3 3 5 6 6 8 9 9 11 14 14 17 16 14 5 6 7 7 5 5
23 24 24 23 22 21 20 20 17 6 2 1 4 3 0 1 1 2 4 2 4 5 2 3 3 1 2 2 2 4 3 2 7 2 0 4 5 6 4 8 10 8 9 12 7 10 8 7 6 5 6 8 7 5
24 24 24 24 23 22 22 22 19 17 15 3 2 2 2 1 4 7 8 4 3 4 4 3 2 3 2 2 2 3 5 7 2 2 5 5 5 6 7 5 8 6 6 7 8 3 3 2 1 4 8 6 8 6
25 25 24 25 24 24 23 22 18 23 4 3 4 5 6 5 6 6 4 4 3 3 4 3 2 2 1 2 3 5 5 3 2 4 7 4 6 5 6 4 3 8 7 7 6 3 2 2 3 4 6 9 8 7
27 27 27 27 26 25 24 23 21 8 3 5 5 6 9 4 2 2 1 1 2 3 3 2 1 2 2 3 4 2 2 5 6 6 4 4 4 4 7 6 7 6 6 5 3 2 3 3 4 6 6 5 6 6
28 27 25 27 27 27 27 24 12 3 3 5 8 3 2 2 3 2 3 3 3 3 2 1 3 3 5 4 5 8 5 7 5 4 4 2 3 5 6 7 7 6 5 6 5 4 3 3 4 5 5 4 4 5
30 13 25 27 28 29 28 5 3 7 6 5 5 2 4 1 4 4 4 4 6 5 3 3 4 11 1 4 5 5 6 5 6 4 3 5 6 8 7 8 7 6 6 5 2 3 4 5 5 5 5 5 3 3
14 13 24 26 25 17 3 7 5 6 10 3 3 4 2 4 4 2 3 4 6 4 4 6 4 5 5 3 4 4 6 6 7 8 10 8 5 7 7 7 6 5 5 5 6 4 5 7 7 6 6 5 4 3
21 22 29 25 22 5 6 8 6 4 5 3 2 2 3 3 5 5 6 7 4 2 4 3 5 4 9 6 9 11 8 7 9 13 5 6 7 7 7 6 6 5 6 6 7 7 7 8 6 6 6 6 5 4
35 35 33 32 27 5 6 5 1 5 5 5 2 2 3 3 2 1 2 4 4 2 5 5 9 13 13 15 12 13 14 13 1 6 11 11 5 5 7 5 5 5 5 5 6 10 5 5 3 5 6 7 6 6
21 20 31 25 9 8 3 4 2 3 4 4 1 5 3 1 2 3 5 5 4 3 6 9 13 13 15 11 11 1 4 3 6 7 11 11 8 3 4 4 6 4 5 5 6 6 11 8 6 6 6 6 5 5
6 23 6 12 2 2 3 1 1 2 3 2 3 2 2 2 3 3 3 4 4 12 7 10 12 9 10 9 4 3 4 5 6 6 14 13 11 6 6 6 4 7 7 7 7 7 7 5 6 6 6 5 7 5
16 6 3 4 4 3 1 1 3 1 4 4 1 2 2 3 4 1 3 4 4 0 2 2 3 3 4 5 5 4 4 7 6 6 7 8 8 7 6 6 6 7 6 7 6 6 6 10 10 7 6 7 6 5
9 4 4 2 4 4 1 1 0 3 3 3 4 4 3 3 1 1 4 3 2 1 3 6 5 4 3 3 3 4 5 6 7 6 4 6 8 8 5 7 7 7 7 3 6 6 6 7 11 8 8 8 8 7
6 2 4 4 3 4 3 1 2 2 4 4 4 3 3 2 3 4 4 3 2 2 4 5 5 3 3 5 5 6 8 6 7 9 7 7 9 8 8 7 7 7 5 5 7 7 7 7 8 8 9 9 10 9
4 2 2 4 2 5 5 5 7 5 4 3 6 1 1 3 3 6 3 1 2 2 3 5 5 7 6 5 8 8 8 7 8 9 9 8 7 8 9 8 7 5 5 7 7 10 10 10 10 12 10 13 17 10
3 3 1 0 3 4 3 2 2 3 5 6 4 4 3 4 6 2 1 2 2 2 4 5 5 6 7 8 8 9 9 8 8 9 11 11 10 9 9 10 10 6 5 9 9 10 12 13 12 12 10 8 9 10
2 1 3 3 2 1 5 2 5 7 4 3 5 5 7 6 2 2 2 2 4 4 5 5 5 4 6 7 8 8 9 7 10 10 8 7 8 7 8 7 8 17 7 9 10 9 10 11 11 12 11 11 8 8
3 3 2 3 3 2 2 4 3 0 1 3 4 3 3 2 1 2 2 4 4 4 4 5 5 5 6 5 5 5 6 6 8 9 9 10 9 6 4 7 7 6 4 6 16 13 11 10 10 10 11 9 8 7
3 3 2 2 1 2 0 1 0 1 1 2 3 3 2 2 1 1 3 3 4 4 4 5 5 5 5 7 9 11 5 3 5 5 8 11 9 10 10 10 8 3 2 3 4 7 18 12 12 8 8 7 6 6
3 3 2 2 0 1 1 1 1 0 2 2 3 3 3 3 2 1 4 4 4 4 4 5 6 5 6 7 8 8 9 5 12 17 14 10 7 8 8 6 3 1 1 2 5 7 8 9 8 9 9 10 11 10
2 2 2 2 2 2 1 1 0 1 2 2 2 2 2 2 2 2 4 5 5 6 10 7 6 5 7 6 5 5 13 9 11 13 21 4 4 5 5 4 3 2 2 3 3 5 8 9 7 7 7 9 9 9
2 2 1 0 1 2 1 1 1 2 3 2 2 2 2 2 2 2 2 4 4 5 7 6 6 6 6 6 10 9 14 9 18 26 30 30 13 7 4 4 4 4 5 5 6 8 9 10 7 7 7 8 8 8
Wind_Direction
43 31 27 25 17 20 20 21 19 7 357 7 21 332 236 209 187 169 206 193 149 181 252 190 183 159 118 174 172 150 105 34 64 139 172 236 199 236 17 165 179 168 169 205 199 224 275 137 115 181 235 234 172 196
19 16 360 355 1 6 6 8 8 7 8 2 6 10 339 217 193 180 163 166 113 134 262 299 259 264 197 181 142 181 207 159 192 114 236 59 253 177 174 277 145 267 201 198 196 214 237 192 251 258 131 250 224 215
316 327 341 351 341 340 346 352 359 359 357 5 355 5 359 347 197 183 111 141 86 37 283 45 235 116 96 212 255 142 248 174 198 205 181 224 232 126 206 235 200 258 178 233 16 254 249 259 262 257 245 242 202 199
294 297 306 315 325 335 328 335 340 345 351 354 351 357 357 343 239 176 155 165 98 121 243 254 98 61 7 63 67 18 110 67 79 61 254 251 194 160 247 256 224 170 136 243 259 278 284 267 265 279 237 180 168 175
279 279 285 291 298 304 322 319 325 330 334 340 349 346 337 337 338 157 111 200 196 185 249 249 103 20 8 137 120 109 120 130 144 148 213 243 233 241 183 18 216 192 232 225 263 274 282 294 7 316 183 206 186 174
277 280 280 282 286 289 294 306 318 318 320 319 324 328 336 345 126 105 320 204 207 152 326 302 65 20 20 82 91 92 113 148 174 180 222 236 114 215 271 265 235 205 231 238 257 268 277 294 267 217 215 202 171 181
278 278 276 276 278 280 283 293 304 314 325 315 314 306 294 174 111 152 200 288 166 126 263 281 181 23 15 65 69 121 122 140 144 248 236 272 199 211 255 264 259 262 279 269 255 278 285 245 271 205 187 183 180 157
273 273 274 273 271 271 274 283 296 314 328 334 61 45 99 130 100 340 5 145 148 100 190 248 202 251 182 163 80 351 92 102 220 262 327 229 319 252 262 259 267 268 289 282 272 250 255 282 148 189 127 139 170 195
267 266 267 267 268 268 271 276 286 302 321 19 13 3 55 37 51 303 113 80 33 133 246 199 186 253 166 156 126 38 147 218 225 234 243 156 195 224 231 256 272 275 265 297 301 277 287 240 266 191 160 181 194 210
260 262 263 263 262 262 261 262 265 281 310 321 359 32 360 322 274 18 27 176 240 235 232 243 113 220 125 155 148 100 194 234 263 240 107 232 258 298 248 245 265 292 294 300 297 304 310 264 240 205 208 197 207 197
252 254 257 258 256 254 250 249 245 237 237 31 48 86 262 352 14 28 250 209 199 269 226 239 222 188 204 139 174 205 184 183 273 257 159 262 267 246 285 260 261 272 284 284 267 273 278 268 229 210 202 182 188 177
250 250 248 245 245 248 248 242 228 164 160 164 130 99 58 39 21 236 217 285 215 236 233 175 211 157 168 180 154 177 187 103 250 157 125 265 250 248 282 285 284 277 293 299 293 289 290 252 240 197 165 168 169 165
249 247 246 246 245 243 241 239 222 154 123 64 48 65 98 248 222 210 210 209 215 204 186 159 145 136 151 223 132 119 170 220 82 186 231 237 258 279 264 265 299 286 302 289 299 303 320 317 100 139 153 138 141 156
248 246 245 245 242 239 238 237 211 154 114 198 157 234 197 215 230 200 183 193 240 111 124 110 104 152 153 142 173 185 219 113 224 247 241 245 242 268 295 267 284 306 307 291 294 306 122 153 125 134 144 142 154 166
249 247 245 241 236 235 231 228 200 160 158 193 161 225 224 215 219 255 204 90 208 153 130 85 69 130 186 219 202 173 200 239 211 233 234 239 242 283 297 297 292 303 307 288 262 221 164 159 149 132 137 143 151 149
246 246 241 237 232 230 228 223 202 153 205 218 202 226 209 82 278 219 190 243 175 135 61 50 152 184 239 217 179 215 172 224 245 224 233 270 272 256 287 300 294 286 280 269 250 226 170 157 178 146 129 157 171 156
246 243 241 234 231 228 224 178 163 209 228 210 213 160 178 124 195 199 171 206 156 143 191 176 208 224 358 219 218 192 209 225 230 262 251 228 264 305 288 277 280 282 274 256 213 207 196 138 137 141 170 190 188 176
236 229 224 223 221 219 193 193 194 217 216 189 185 215 208 192 205 248 220 156 153 183 143 213 169 205 239 254 269 246 250 267 258 282 282 281 256 255 257 267 279 260 251 234 220 203 174 166 178 193 172 167 161 169
235 225 223 217 206 175 193 193 188 219 193 177 189 205 192 218 227 241 204 201 196 161 143 185 224 227 249 218 242 258 254 254 287 292 272 257 242 260 277 264 259 258 242 231 214 210 202 189 200 185 169 162 183 188
238 226 217 213 199 192 206 202 179 175 171 205 114 192 188 194 252 184 155 166 165 178 214 222 241 247 251 257 249 258 267 278 208 294 292 285 260 227 242 249 255 249 243 230 226 215 187 168 173 184 167 177 178 192
233 220 216 205 206 204 195 165 172 184 148 173 262 151 206 44 227 203 229 162 185 209 251 232 244 248 247 259 269 279 268 171 251 266 282 294 299 231 255 243 241 231 227 215 211 214 208 205 188 173 183 186 182 186
192 188 174 188 148 182 120 38 162 152 110 165 118 128 137 188 224 216 167 196 227 238 234 256 255 269 274 278 343 319 283 280 274 270 282 281 280 275 254 240 213 234 227 219 210 210 208 187 165 169 179 167 176 176
112 110 109 134 150 96 231 43 125 248 130 179 73 94 252 228 221 99 218 222 252 210 337 26 2 340 301 309 314 303 307 306 300 294 287 282 281 275 267 252 224 230 229 224 208 201 191 173 186 173 167 168 156 179
83 86 108 131 93 118 129 100 234 102 88 120 143 218 239 215 162 159 244 258 274 336 43 14 359 338 332 324 294 315 328 324 307 298 289 298 298 292 262 264 248 234 229 208 195 189 170 172 183 177 176 167 172 179
88 64 133 93 77 107 107 105 91 139 166 178 148 248 226 152 170 222 230 256 356 8 17 1 352 343 299 292 294 302 311 308 305 302 301 292 287 288 282 266 255 243 211 192 191 183 175 165 171 177 180 177 176 174
82 18 87 146 184 161 167 141 187 174 133 154 217 137 89 151 207 239 226 348 343 1 1 347 326 314 303 299 305 307 307 312 304 295 296 285 289 298 298 290 273 259 207 208 195 190 180 178 174 175 186 191 186 171
128 210 227 230 115 125 103 60 81 127 163 194 178 146 135 197 234 221 89 42 347 338 317 301 291 287 290 299 299 299 302 297 278 274 284 282 275 269 269 275 274 262 187 212 205 195 188 180 179 177 181 181 190 182
49 335 181 206 118 3 116 128 171 195 193 182 122 180 189 208 220 19 16 20 331 310 296 290 286 285 291 290 291 294 298 296 292 287 279 267 258 259 259 268 270 269 219 209 211 200 193 184 176 174 177 180 177 172
30 340 47 30 48 54 186 187 215 159 0 158 173 173 153 69 26 348 336 324 311 298 311 326 329 325 311 305 290 280 288 294 331 337 333 321 319 310 323 297 279 261 222 206 220 195 184 173 165 174 176 171 155 147
345 331 32 30 134 227 307 331 152 280 31 78 103 104 102 118 144 289 342 336 339 333 315 301 300 322 329 338 331 334 331 294 312 329 312 302 291 300 304 300 290 252 180 189 196 176 178 160 157 142 137 140 147 145
327 343 32 36 99 312 329 320 280 339 70 74 43 80 104 127 153 136 11 346 327 319 323 349 339 339 342 346 344 333 329 314 321 318 308 294 273 286 298 298 304 272 156 172 157 167 162 150 143 148 161 156 164 158
339 19 344 327 335 318 308 277 201 75 49 70 80 105 137 130 102 30 5 351 354 0 351 351 337 327 322 323 317 307 316 320 325 325 333 322 314 321 320 324 343 37 88 117 124 118 113 121 134 149 153 150 153 146
307 337 8 45 13 354 312 281 136 91 38 54 44 72 49 54 104 18 341 0 345 331 337 323 309 305 319 348 358 346 347 339 343 357 360 3 20 23 4 349 4 38 65 85 100 110 107 111 115 125 134 142 146 157